Showing default

KINEIS-1C, 60081

Orbit data source: Space-Track

KINEIS-1C, 60081 is a French payload satellite in SSO that was launched on Thu, 20 Jun 2024 UTC via an ELECTRON launch vehicle from the Rocket Lab Launch Complex (RLLC). Payload-class satellites include a variety of spacecraft equipped with specific instruments for various scientific and technological missions. These include communications satellites like Starlink; space stations such as the ISS; scientific satellites like the Hubble; Earth observation satellites from companies like Planet Labs, Umbra, and HawkEye 360; GPS; miniature CubeSats for education and research; and military/defense satellites.

Loading next visibility...
Identifier
60081, 2024-114C
Orbit
SSO
Country
Flag of FRFR
Related business
Manufacturer
KINEIS
Mission
Operational Commercial Communications
Bus & Motor
CUBESAT 16U, Unknown motor
Mass
28 kg wet, 28 kg dry
Launch date (UTC)
2024-06-20 (2 years ago)
Launch vehicle
ELECTRON
Launch site
Rocket Lab Launch Complex (RLLC)
Object type
Payload
Rocket body
Debris
Shape & HBR
Box + 2 Pan + 1 Ant, 1.0 m
Radar Cross Section
0.229 m², Medium (>0.1 m² and < 1m²)

Expand to show TLE details & history
Last TLE update: 12 hours ago

TLE from 12 hours ago
0 KINEIS-1C
1 60081U 24114C   26255.26037287  .00000499  00000-0  71637-4 0  9992
2 60081  97.9829 278.8965 0000505 108.3486 251.7781 14.80740571120265
Epoch: 2026-09-12T06:14Z
TLE epoch observation values (Epoch: 2026-09-12T06:14:56.215Z)
Latitude
-0.00006°
Longitude
-166.10965°
Altitude
630.118 km
Speed
7.543 km/s
True Right ascension
18h 35m 35s
True Declination
0° 00' 00"
Sunlit
Object was in daylight at epoch
Visualization orbit readout
Latitude
Unknown
Longitude
Unknown
Altitude
Unknown
Speed
Unknown
Apparent Right ascension
Unknown
Apparent Declination
Unknown
Sunlit
N/A
Visualization observer readout
Local Sidereal Time
10:38:46
Azimuth
Unknown
Elevation
Unknown
Doppler factor
Unknown
Orbital elements
Apogee altitude
624.385 km
Perigee altitude
623.677 km
Semi-major axis
7,002.168 km
Eccentricity
0.00005
Inclination
97.9829°
RAAN
278.8965°
Arg. of periapsis
108.3486°
True anomaly
251.7726°
Mean anomaly
251.7781°
Eccentric anomaly
251.77535°
Mean motion
3.7042 °/min
Orbital period
97.19 mins
BSTAR
0.000071637
Loading maneuver chart data...
Computing Atmospheric mass density...
Loading historical data...
Loading historical data...
Loading historical data...
Loading historical data...
Loading historical data...
Loading historical data...
Loading historical data...

Documentation

Showing up to 5 results
|